Location: Canyam�s
(41.5996°N, 2.4450°E)
Time: 03:25:26
(UTC+00:00)

N. Korean satellite - Pass Details

Date: 15 August 2020
Orbit: 455 x 503 km, 97.2° (Epoch: 22 September)

Event Time Altitude Azimuth Distance (km) Brightness Sun altitude
Rises 04:24:42 0° 33° (NNE) 2,542 11.3 -6.8°
Reaches altitude 10° 04:27:37 10° 60° (ENE) 1,668 11.1 -6.3°
Maximum altitude 04:29:31 14° 92° (E) 1,447 10.1 -6.0°
Drops below altitude 10° 04:31:27 10° 125° (SE) 1,675 9.7 -5.6°
Sets 04:34:23 0° 151° (SSE) 2,560 10.3 -5.1°
